RH
77 67 26 22 19 17 16 14 14 14 12 9 9 8 9 12 15 16 12 11 11 7 11 14 16 14 7 8 8 12 19 24 38 36 34 44 55 86 83 100 100 99 93
61 28 22 20 19 18 16 15 12 11 10 10 10 10 11 14 15 10 11 7 7 12 15 16 17 12 8 8 12 18 21 28 35 40 48 62 70 71 97 98 93 92 80
54 35 17 16 14 14 12 12 12 12 11 11 10 13 16 15 10 11 7 6 8 15 16 18 17 14 9 10 18 24 34 36 47 56 68 76 85 80 89 96 99 98 98
90 70 54 20 15 14 14 13 13 13 12 12 15 16 12 10 11 7 7 9 15 16 18 21 20 18 9 17 20 27 35 37 44 51 58 70 82 84 80 94 91 80 84
48 79 67 53 37 22 15 14 13 14 16 17 14 11 13 11 9 9 12 16 20 18 22 26 25 26 22 15 16 26 37 42 48 50 59 70 70 75 81 83 69 54 39
26 23 22 22 19 18 16 18 18 18 14 12 13 14 11 11 14 16 19 21 23 23 29 33 36 37 37 40 42 49 53 51 51 55 56 52 51 42 42 41 39 29 25
35 30 27 24 23 22 21 19 15 12 12 18 14 14 18 16 16 20 22 26 23 30 36 33 33 36 38 40 38 32 28 26 26 27 30 32 33 35 34 33 29 25 20
37 32 28 24 22 20 18 13 14 20 19 16 18 19 18 20 24 25 30 29 31 33 34 35 36 37 34 28 26 25 24 23 25 28 30 33 35 34 33 31 21 15 12
33 53 42 22 17 15 18 22 25 23 23 23 26 27 30 31 34 35 34 34 36 34 37 37 34 31 30 28 29 27 27 27 27 30 32 34 36 37 33 28 24 17 18
22 19 16 18 22 27 31 31 28 31 34 34 36 38 40 41 43 42 38 37 36 38 39 36 34 33 30 28 27 27 28 26 26 28 32 35 35 37 38 30 22 23 31
23 28 30 35 37 38 40 34 37 42 42 42 44 48 51 53 48 41 41 40 41 41 40 37 36 32 30 30 29 28 28 28 29 30 33 32 33 42 38 25 22 28 36
44 40 39 40 43 50 45 43 50 52 51 51 54 62 64 51 44 43 44 47 45 42 38 37 33 32 31 29 27 27 28 29 32 36 34 31 33 52 38 26 26 30 36
50 56 56 58 57 56 54 55 58 61 57 62 72 67 54 48 49 48 49 47 46 41 41 36 36 36 32 29 28 26 28 34 37 37 33 32 39 56 55 44 28 31 37
50 56 62 60 57 61 70 70 61 61 69 76 73 59 55 54 50 47 48 48 46 44 40 40 40 37 35 34 30 28 32 39 43 37 33 36 50 64 68 57 52 53 45
58 64 64 65 68 72 68 60 59 68 80 77 62 63 60 54 51 50 50 49 47 45 45 45 45 44 44 41 35 32 38 41 39 36 35 41 56 67 73 73 72 72 58
66 64 60 60 59 58 56 58 68 76 75 64 72 75 70 62 56 55 56 54 52 52 52 52 53 54 54 48 40 39 42 42 39 38 48 52 60 64 67 63 59 63 55
65 63 63 65 62 62 69 73 69 62 63 85 88 87 84 77 67 62 60 58 56 56 58 61 61 63 61 52 45 49 47 46 41 31 55 62 62 64 66 66 68 49 48
75 76 75 71 71 74 71 65 62 71 85 91 96 91 86 85 76 67 64 62 63 63 63 64 66 69 64 52 50 55 54 50 38 39 57 61 61 64 69 71 61 35 34
81 81 85 82 78 80 80 74 72 81 94 100 96 90 78 74 73 71 69 70 69 66 66 69 71 72 62 54 61 61 58 49 41 50 58 58 58 63 67 52 27 24 26
89 89 90 94 90 92 93 92 98 100 100 99 97 91 86 79 75 73 75 73 68 67 71 76 77 74 61 63 68 66 62 57 47 58 62 59 60 63 46 22 20 24 30
98 95 97 99 100 98 100 100 100 100 100 100 98 97 95 91 84 80 82 81 74 74 74 76 80 74 65 69 68 68 70 64 58 65 65 62 64 50 24 19 18 20 27
100 100 100 100 100 100 100 100 100 100 100 100 100 98 96 94 94 88 88 88 81 81 81 82 84 72 70 70 71 74 73 67 72 72 65 64 68 48 30 18 17 19 28
100 100 100 100 100 100 100 100 100 100 100 100 100 100 100 100 100 100 96 91 90 90 87 86 82 78 76 77 77 78 84 83 77 76 67 68 75 62 36 17 17 19 31
91 96 84 82 82 87 100 100 100 100 100 100 100 100 100 100 100 100 100 99 97 94 89 84 82 82 80 85 84 83 77 80 77 69 67 77 79 67 34 16 17 19 34
73 71 82 80 60 62 70 91 100 100 100 100 100 100 100 100 100 100 100 99 97 98 90 85 80 83 86 92 92 83 72 79 70 60 62 72 76 68 30 16 17 20 36
93 74 78 69 62 77 90 98 100 100 100 100 100 100 100 100 100 100 100 93 100 100 98 94 88 86 89 67 69 68 51 62 67 66 59 65 73 63 22 17 18 22 36
Wind_Speed
46 47 44 43 43 43 43 43 43 44 44 44 44 43 41 38 37 37 38 38 35 32 35 39 42 44 46 40 42 49 43 41 40 43 44 46 43 46 48 48 44 45 45
39 40 41 42 42 43 43 43 44 43 44 43 43 42 39 37 36 37 38 32 30 33 38 40 42 43 44 40 36 38 37 35 34 37 40 39 39 38 37 41 45 43 43
37 37 39 39 40 41 42 42 43 43 43 43 41 38 36 36 38 35 32 30 32 36 39 40 39 43 41 38 33 34 34 32 31 31 29 28 31 34 38 38 40 40 41
39 37 36 39 39 40 41 41 42 42 41 39 37 36 36 37 33 30 32 32 33 37 38 38 38 39 38 35 35 36 35 33 31 30 32 32 31 32 38 40 40 40 40
40 35 36 35 38 40 39 38 37 36 35 35 36 36 35 31 29 30 31 30 35 37 37 36 36 36 36 37 37 34 31 31 34 35 34 33 36 37 37 37 38 39 39
35 37 39 40 38 36 34 32 32 33 34 35 34 32 28 27 29 28 27 33 36 36 35 34 35 35 33 32 31 32 34 34 34 34 35 36 36 35 36 38 39 40 42
31 31 31 31 30 30 31 30 32 33 32 31 28 27 24 26 27 29 32 35 34 34 33 33 32 32 32 33 32 32 32 32 33 33 35 36 37 38 40 39 40 42 43
28 28 28 27 28 29 30 31 30 29 28 25 24 26 25 25 28 32 34 33 33 32 31 31 32 31 30 29 30 31 31 33 34 35 36 37 38 39 39 39 40 42 43
24 26 28 29 29 29 28 28 26 24 26 26 25 22 24 28 30 33 31 32 30 30 31 32 29 27 29 30 30 31 32 35 36 37 38 38 39 39 39 40 41 42 44
28 29 28 27 27 27 26 25 23 24 24 23 22 25 27 29 31 30 30 29 28 30 30 29 27 27 29 30 32 34 35 37 39 40 40 40 40 41 41 41 41 42 42
23 23 25 26 25 25 24 24 23 24 24 23 25 27 28 27 27 27 26 26 28 29 28 26 27 28 29 31 33 35 37 39 41 42 41 41 42 41 41 41 41 42 43
20 21 21 22 22 22 23 24 24 26 27 27 26 24 24 25 25 25 25 27 28 27 26 25 27 29 31 33 34 37 39 41 42 42 42 43 43 41 41 41 42 42 43
18 19 18 19 19 19 20 22 23 24 25 23 22 23 23 24 24 24 26 28 27 26 25 26 28 30 32 34 35 38 41 42 42 41 43 45 44 41 41 41 42 42 45
17 20 21 21 21 22 22 22 22 21 20 21 22 22 23 23 23 24 26 25 26 25 25 27 29 31 33 35 37 39 41 41 41 42 45 48 44 41 41 42 42 44 46
19 19 20 20 20 20 20 20 20 21 22 22 21 21 23 22 23 25 25 26 26 26 27 29 31 33 35 37 39 41 41 40 41 46 49 48 44 42 42 43 44 46 47
20 19 18 16 16 18 21 22 21 21 20 19 20 22 23 24 24 25 26 26 26 28 29 31 33 36 38 40 41 42 40 40 45 49 49 46 44 43 44 44 44 46 49
20 19 17 18 20 20 20 20 19 19 20 21 22 25 26 25 25 26 26 27 28 29 31 33 36 39 39 41 42 41 40 44 49 50 47 45 44 44 45 46 46 48 52
21 21 21 22 21 19 19 19 19 20 21 23 26 25 25 26 26 27 28 28 29 31 33 35 37 38 40 41 41 40 43 47 50 48 45 45 45 45 46 47 49 53 54
23 23 24 24 22 21 21 21 21 23 24 26 25 24 25 25 27 29 30 30 31 33 35 37 38 39 40 41 41 41 45 49 51 47 45 46 46 45 47 49 55 57 53
24 25 26 25 24 24 24 24 24 25 26 25 25 26 27 28 29 31 32 33 34 35 36 38 39 39 41 41 41 42 46 50 52 46 46 46 46 46 49 54 58 56 52
24 25 26 26 28 28 27 27 26 27 27 27 28 30 30 30 30 32 34 35 36 37 38 39 39 40 40 41 43 46 48 53 50 46 47 47 47 48 53 57 57 52 47
27 27 27 27 27 28 29 29 29 29 30 30 30 29 31 33 33 34 36 37 37 38 39 40 40 40 40 43 46 48 50 52 49 47 48 49 49 51 56 58 54 50 46
29 29 29 29 29 31 31 32 32 32 33 32 32 34 36 35 37 38 38 38 39 39 39 39 40 42 43 45 48 51 53 51 50 50 51 51 52 53 57 57 53 49 46
33 32 31 31 33 35 36 35 35 35 36 37 37 38 39 38 38 39 38 39 39 40 40 40 41 44 46 48 52 53 52 51 50 51 51 53 54 55 59 57 53 50 46
34 34 34 35 37 37 37 36 36 39 42 41 41 43 43 42 40 38 38 38 40 41 41 41 43 45 47 52 54 54 51 50 51 52 52 54 56 58 61 56 52 49 45
37 36 36 34 30 30 32 34 38 40 42 43 41 42 43 42 38 37 37 39 41 40 43 44 45 46 51 55 52 53 51 52 53 55 55 56 58 61 60 55 52 49 43
Wind_Direction
238 240 245 246 249 252 255 257 259 262 265 267 271 274 276 276 277 278 281 284 282 284 290 293 297 298 298 296 300 305 307 308 302 296 295 294 291 284 288 276 299 288 297
235 239 242 245 248 250 253 256 259 263 266 269 272 274 274 275 277 280 282 278 279 286 293 297 298 298 294 299 299 307 308 312 307 301 296 293 291 285 290 291 295 292 295
238 244 246 248 249 251 254 256 259 263 266 268 269 270 271 275 278 279 277 278 278 289 293 298 297 301 296 297 299 307 307 312 301 300 303 302 300 294 293 299 300 297 295
233 245 247 253 253 254 256 259 260 262 263 264 265 269 272 275 274 273 278 280 283 291 292 296 297 300 295 292 297 303 305 304 306 303 304 299 298 293 295 298 297 297 299
243 246 249 254 258 261 259 257 257 258 260 263 267 270 271 267 266 275 277 278 286 288 291 295 296 300 299 295 297 298 304 306 304 304 305 301 297 301 302 301 301 301 301
249 247 246 247 249 250 251 253 255 258 261 263 265 264 256 265 270 275 276 283 287 289 293 294 295 298 300 303 302 300 303 305 307 307 306 306 304 303 302 301 301 299 299
244 243 244 244 245 247 249 252 255 256 259 258 253 252 261 265 269 273 282 287 287 291 292 295 299 301 303 302 301 303 307 308 310 311 309 307 305 304 303 300 298 299 299
238 240 240 242 243 247 250 251 252 253 251 244 255 259 261 266 272 277 285 285 289 292 294 299 301 301 302 302 305 306 309 310 308 307 307 305 303 302 300 298 298 298 300
234 241 243 245 245 246 248 247 245 247 246 252 254 257 265 271 275 283 283 287 290 292 299 301 301 303 305 305 306 307 308 310 309 307 306 304 303 301 300 299 300 300 304
235 238 239 240 242 246 243 241 244 248 249 249 256 264 268 274 280 282 286 290 294 297 297 298 298 302 305 308 311 311 309 309 309 308 307 305 305 304 303 302 302 305 311
236 239 238 240 241 239 238 241 243 245 247 259 266 270 273 277 281 284 286 289 292 296 297 295 300 306 310 310 310 310 310 310 310 311 309 308 308 306 303 303 305 308 311
236 239 238 236 234 237 239 243 246 250 258 266 270 270 273 277 280 283 286 289 293 294 295 298 306 310 309 310 312 312 313 313 312 313 311 311 310 305 303 303 306 308 311
237 233 232 230 231 239 244 247 251 259 264 265 266 269 273 278 280 283 288 291 292 295 298 303 305 306 309 312 315 316 315 314 314 313 314 313 312 306 303 303 305 307 308
242 234 233 240 247 248 247 255 260 261 264 267 268 272 279 279 280 288 293 293 293 294 297 299 303 307 311 314 316 317 317 316 316 316 316 315 311 306 305 305 305 305 306
243 240 242 246 248 250 253 256 261 261 262 262 267 276 278 276 283 292 293 294 293 294 297 301 305 308 310 314 316 318 318 318 317 319 319 316 311 306 305 304 305 305 305
235 235 237 240 245 254 258 258 258 258 258 264 272 280 284 281 284 292 295 297 296 297 299 301 304 307 309 313 316 318 318 318 319 320 318 315 312 308 305 305 306 303 305
235 233 234 243 250 251 251 252 253 254 258 266 274 283 285 285 283 291 295 297 298 300 301 303 305 306 309 313 317 318 316 318 322 321 316 314 312 311 308 307 306 307 307
237 237 243 245 241 242 246 248 250 256 266 273 278 283 285 284 285 290 294 297 301 302 302 303 304 307 310 314 317 317 318 322 324 321 318 316 314 312 309 308 308 308 310
243 246 245 241 237 239 243 246 251 259 266 272 275 279 286 288 289 291 294 298 301 301 303 304 305 307 311 315 316 317 320 323 325 320 318 317 315 312 310 310 309 311 311
246 246 248 242 241 242 245 249 257 263 269 268 271 276 283 289 291 294 295 298 301 302 304 304 305 308 313 315 315 316 320 324 325 320 318 317 315 313 313 313 313 314 310
246 249 246 245 248 248 249 253 260 266 268 269 275 280 282 287 292 294 296 297 300 302 306 306 306 310 313 314 316 318 319 323 322 320 320 318 316 315 316 316 316 315 310
250 250 250 251 254 255 256 260 265 267 270 271 275 279 282 285 290 295 296 297 300 304 306 306 306 309 311 314 317 319 319 321 320 320 321 320 316 314 316 317 317 315 311
252 253 253 254 257 258 258 260 264 264 268 270 273 280 285 287 290 293 295 297 300 302 305 304 305 308 310 314 319 320 317 318 318 317 317 318 316 315 317 318 316 315 311
251 253 254 258 260 259 258 261 265 267 268 269 274 279 283 285 288 290 292 296 299 302 304 305 307 309 310 313 316 320 318 317 317 317 317 318 317 316 318 317 316 315 311
250 251 256 264 265 261 258 257 262 267 270 271 275 277 281 285 285 289 293 296 300 304 304 304 307 309 311 312 316 318 316 316 316 317 316 317 317 317 317 317 315 313 310
252 253 259 264 262 262 260 259 267 271 269 270 273 278 280 279 281 287 292 297 302 302 303 305 308 310 314 316 315 316 316 316 315 315 315 316 316 316 315 314 312 310 306